Location: Newark
(46.7636°N, 1.8358°W)
Time: 04:05:07
(UTC+00:00)

deb Explorer IX - Visible Passes

Search period start: 18 October 2019 00:00
Search period end: 28 October 2019 00:00
Orbit: 544 x 1107 km, 38.8° (Epoch: 17 October)

Date Brightness Start Highest point End Pass type
(mag) Time Alt. Az. Time Alt. Az. Time Alt. Az.
18 Oct ? 19:12:46 10° WSW 19:17:52 22° SSW 19:23:09 10° SSE visible
19 Oct ? 18:50:54 10° WSW 18:55:50 21° SSW 19:01:00 10° SSE visible
20 Oct ? 18:29:02 10° WSW 18:33:49 20° SSW 18:38:51 10° SSE visible
21 Oct ? 18:07:14 10° WSW 18:11:49 20° SSW 18:16:40 10° SSE visible
22 Oct ? 17:45:27 10° WSW 17:49:48 19° SSW 17:54:28 10° SSE visible
